FW2140 Weather Reports


time (UTC)temp
C
wind
direction
speed
KPH
gust
KPH
rain 1hr
cm
rain 24hr
cm
rain mn
cm
humidity
%
barometer
mb
20260507085404 10 279 1.6 4.8 0.05 0.20 0.08 96 1007.0
20260507084404 10 257 1.6 4.8 0.08 0.20 0.08 95 1007.1
20260507083404 10 281 3.2 4.8 0.08 0.20 0.08 95 1006.7
20260507082403 11 249 0.0 4.8 0.05 0.18 0.05 94 1007.2
20260507080404 11 305 3.2 8.0 0.03 0.15 0.03 94 1007.3
20260507075403 11 282 3.2 9.7 0.03 0.15 0.03 93 1006.8
20260507074404 12 293 3.2 9.7 0.00 0.13 0.00 91 1006.7
20260507072403 12 289 3.2 4.8 0.00 0.13 0.00 88 1005.9
20260507071404 12 271 1.6 8.0 0.00 0.13 0.00 88 1006.0
20260507070404 13 282 3.2 8.0 0.00 0.13 0.00 89 1006.2
20260507065404 13 295 1.6 9.7 0.00 0.13 0.00 89 1006.0
20260507064404 13 291 3.2 9.7 0.00 0.13 0.00 88 1006.2
20260507063404 13 275 1.6 9.7 0.00 0.13 0.00 88 1006.4
20260507062403 13 298 3.2 4.8 0.00 0.13 0.00 88 1006.3
20260507061404 13 262 1.6 9.7 0.00 0.13 0.00 88 1005.7
20260507060403 13 9 1.6 9.7 0.00 0.13 0.00 88 1006.2
20260507055404 13 289 3.2 8.0 0.00 0.13 0.00 89 1006.2
20260507054404 14 275 1.6 4.8 0.00 0.13 0.00 90 1006.4
20260507053403 14 287 3.2 4.8 0.00 0.13 0.00 91 1006.5
20260507052406 15 267 0.0 4.8 0.00 0.13 0.00 91 1006.3
20260507051404 15 287 1.6 8.0 0.00 0.13 0.00 91 1005.9
20260507050404 15 276 3.2 9.7 0.00 0.13 0.00 91 1006.1
20260507045403 15 285 3.2 9.7 0.00 0.13 0.00 93 1006.3
20260507044404 15 291 3.2 9.7 0.00 0.13 0.00 96 1006.0
20260507042403 15 274 1.6 3.2 0.00 0.13 0.00 97 1006.0
20260507041404 15 199 0.0 3.2 0.00 0.13 0.00 97 1006.2
20260507040403 15 285 1.6 3.2 0.00 0.13 0.00 97 1006.4
20260507035404 15 188 0.0 4.8 0.00 0.13 0.13 97 1006.5
20260507034404 15 272 1.6 4.8 0.00 0.13 0.13 96 1006.2
20260507033404 15 252 1.6 4.8 0.00 0.13 0.13 96 1005.9
20260507032405 15 195 3.2 8.0 0.00 0.13 0.13 95 1005.9
20260507031404 15 200 1.6 11.3 0.00 0.13 0.13 95 1005.7
20260507030404 15 279 3.2 8.0 0.00 0.13 0.13 96 1005.5
20260507025404 15 202 0.0 8.0 0.00 0.13 0.13 96 1005.8
20260507024404 15 116 1.6 4.8 0.00 0.13 0.13 96 1005.9
20260507022404 15 245 3.2 4.8 0.00 0.13 0.13 96 1005.7
20260507021404 15 256 3.2 4.8 0.00 0.13 0.13 96 1005.7
20260507015404 15 226 0.0 3.2 0.00 0.13 0.13 97 1005.9
20260507014404 15 129 1.6 8.0 0.00 0.13 0.13 97 1005.9
20260507013404 14 150 1.6 8.0 0.00 0.13 0.13 97 1005.9
20260507012404 14 178 1.6 3.2 0.00 0.13 0.13 97 1005.9
20260507011404 14 203 1.6 4.8 0.00 0.13 0.13 97 1006.1
20260507010404 14 124 0.0 9.7 0.00 0.13 0.13 97 1006.3
20260507005404 14 192 1.6 4.8 0.00 0.13 0.13 97 1006.5
20260507004404 14 214 0.0 9.7 0.03 0.13 0.13 97 1006.1
20260507003404 14 247 1.6 9.7 0.03 0.13 0.13 97 1006.2
20260507002404 14 236 1.6 9.7 0.05 0.13 0.13 97 1006.3
20260507001404 14 135 0.0 8.0 0.05 0.13 0.13 97 1006.1
20260507000405 14 241 1.6 8.0 0.05 0.13 0.13 97 1006.0
20260506235404 14 249 3.2 8.0 0.05 0.13 0.13 97 1006.3
20260506234403 14 115 1.6 8.0 0.03 0.10 0.10 97 1005.9
20260506232403 15 250 1.6 4.8 0.03 0.08 0.08 97 1005.8
20260506231404 15 146 0.0 4.8 0.03 0.08 0.08 96 1005.6
20260506230404 15 184 1.6 8.0 0.03 0.08 0.08 96 1006.0
20260506225404 15 194 1.6 3.2 0.03 0.08 0.08 96 1005.9
20260506224403 15 238 0.0 9.7 0.03 0.08 0.08 96 1006.0
20260506222403 15 244 1.6 8.0 0.03 0.05 0.05 96 1006.3
20260506221404 16 127 3.2 8.0 0.03 0.05 0.05 95 1006.4
20260506220404 16 184 1.6 4.8 0.03 0.05 0.05 95 1006.3
20260506215404 16 155 1.6 8.0 0.03 0.05 0.05 94 1006.6
20260506214404 16 263 1.6 11.3 0.03 0.05 0.05 92 1006.9
20260506213404 16 346 1.6 9.7 0.00 0.03 0.03 90 1006.8
20260506212404 16 135 1.6 9.7 0.00 0.03 0.03 88 1006.7
20260506211404 16 266 3.2 11.3 0.00 0.03 0.03 88 1006.8
20260506210404 16 151 1.6 11.3 0.00 0.03 0.03 88 1006.7
20260506205404 16 219 1.6 9.7 0.00 0.03 0.03 88 1006.9
20260506204404 17 195 4.8 9.7 0.03 0.03 0.03 87 1007.0
20260506203404 17 239 1.6 11.3 0.03 0.03 0.03 85 1006.9
20260506202404 17 275 3.2 9.7 0.03 0.03 0.03 83 1006.9
20260506201403 17 267 3.2 9.7 0.03 0.03 0.03 83 1006.9
20260506195403 18 221 3.2 8.0 0.03 0.03 0.03 82 1006.8
20260506194403 18 133 1.6 8.0 0.00 0.00 0.00 79 1007.2
20260506193403 18 241 1.6 9.7 0.00 0.00 0.00 77 1007.3
20260506192403 18 182 3.2 11.3 0.00 0.00 0.00 75 1007.2
20260506191403 19 184 3.2 4.8 0.00 0.00 0.00 72 1007.3
20260506190403 20 135 1.6 9.7 0.00 0.00 0.00 68 1007.1
20260506184404 21 260 3.2 11.3 0.00 0.00 0.00 64 1007.2
20260506183404 21 228 3.2 9.7 0.00 0.00 0.00 63 1007.3
20260506182404 21 186 3.2 12.9 0.00 0.00 0.00 62 1007.1
20260506181404 21 139 1.6 11.3 0.00 0.00 0.00 61 1007.3
20260506180404 22 266 1.6 12.9 0.00 0.00 0.00 61 1007.2
20260506174403 22 251 4.8 11.3 0.00 0.00 0.00 61 1007.7
20260506173404 22 121 1.6 12.9 0.00 0.00 0.00 61 1007.8
20260506172404 22 241 3.2 9.7 0.00 0.00 0.00 62 1007.6
20260506170403 21 254 4.8 11.3 0.00 0.00 0.00 62 1007.8
20260506165403 22 310 1.6 9.7 0.00 0.00 0.00 62 1007.9
20260506164404 22 186 3.2 11.3 0.00 0.00 0.00 62 1008.0
20260506163404 22 197 3.2 11.3 0.00 0.00 0.00 62 1008.1
20260506161404 21 143 3.2 9.7 0.00 0.00 0.00 63 1008.3
20260506160404 21 184 1.6 11.3 0.00 0.00 0.00 63 1008.5
20260506155404 21 238 3.2 11.3 0.00 0.00 0.00 62 1008.9
20260506154404 22 108 3.2 9.7 0.00 0.00 0.00 62 1008.9
20260506153403 22 198 3.2 12.9 0.00 0.00 0.00 60 1009.1
20260506152404 22 100 3.2 11.3 0.00 0.00 0.00 60 1009.1
20260506151404 22 105 3.2 11.3 0.00 0.00 0.00 59 1009.2
20260506150404 22 222 3.2 12.9 0.00 0.00 0.00 61 1009.2
20260506143404 21 195 3.2 11.3 0.00 0.00 0.00 64 1009.2
20260506142404 21 261 3.2 8.0 0.00 0.00 0.00 64 1009.0
20260506140403 20 257 4.8 12.9 0.00 0.00 0.00 67 1009.2
20260506135404 20 185 3.2 11.3 0.00 0.00 0.00 68 1009.2
20260506134403 19 145 1.6 9.7 0.00 0.00 0.00 71 1009.4
20260506133403 19 245 1.6 9.7 0.00 0.00 0.00 71 1009.9
20260506132404 19 142 3.2 11.3 0.00 0.00 0.00 72 1009.8
20260506131404 19 197 3.2 8.0 0.00 0.00 0.00 72 1009.7
20260506125404 18 251 3.2 11.3 0.00 0.00 0.00 74 1010.1
20260506123404 17 253 1.6 8.0 0.00 0.00 0.00 79 1010.0
20260506122405 17 144 0.0 9.7 0.00 0.00 0.00 79 1009.9
20260506121404 17 252 1.6 8.0 0.00 0.00 0.00 79 1009.9
20260506120404 16 230 1.6 8.0 0.00 0.00 0.00 81 1010.3
20260506115404 16 271 1.6 8.0 0.00 0.00 0.00 82 1010.3
20260506113404 16 5 1.6 8.0 0.00 0.00 0.00 82 1010.6
20260506112404 16 242 3.2 8.0 0.00 0.00 0.00 82 1010.2
20260506111404 16 267 1.6 8.0 0.00 0.00 0.00 82 1010.2
20260506105404 16 114 1.6 8.0 0.00 0.00 0.00 83 1010.3
20260506104404 16 237 1.6 9.7 0.00 0.00 0.00 83 1010.3
20260506103403 16 232 1.6 4.8 0.00 0.00 0.00 83 1010.4
20260506102404 16 237 0.0 4.8 0.00 0.00 0.00 83 1010.3
20260506100404 15 260 1.6 4.8 0.00 0.00 0.00 84 1010.2
20260506095404 15 209 0.0 4.8 0.00 0.00 0.00 84 1010.1
20260506094404 15 249 1.6 4.8 0.00 0.00 0.00 83 1009.9
20260506093404 15 239 0.0 8.0 0.00 0.00 0.00 83 1010.1
20260506092404 15 123 1.6 8.0 0.00 0.00 0.00 83 1009.9
20260506091404 15 269 3.2 8.0 0.00 0.00 0.00 82 1010.1
20260506090404 16 89 1.6 8.0 0.00 0.00 0.00 82 1010.0